User: anonymous   Login
Location: Unspecified
(0.0000°N, 0.0000°E)
Time: 20:45:43
(UTC+00:00)
Language:

USA 198 - Orbit

View from above orbital plane
View from above orbital plane
View from above satellite
View from above satellite

Ground track
Ground track

The orbit data is extracted from the following two-line orbital elements,

1 32378U 07060A   18133.82646734 0.00000000  00000-0  00000-0 0    05
2 32378  62.6684 169.4767 7031420 265.6012  18.3459  2.00620000    06
Epoch (UTC): 13 May 2018 19:50:06
Eccentricity: 0.7031420
inclination: 62.6684°
perigee height: 1505 km
apogee height: 38849 km
right ascension of ascending node: 169.4767°
argument of perigee: 265.6012°
revolutions per day: 2.00620000
mean anomaly at epoch: 18.3459°
orbit number at epoch: 0

The dashed part of the orbit path shows where the satellite is in the earth's shadow,  

DLR